Location: Saint-Maurice-d�Ard�che
(44.5216°N, 4.4002°E)
Time: 17:35:18
(UTC+00:00)

Envisat - Visible Passes

Search period start: 07 March 2021 00:00
Search period end: 17 March 2021 00:00
Orbit: 764 x 766 km, 98.1° (Epoch: 07 March)

Date Brightness Start Highest point End Pass type
(mag) Time Alt. Az. Time Alt. Az. Time Alt. Az.
07 Mar 5.9 04:13:51 10° NE 04:17:16 18° E 04:20:40 10° SE visible
08 Mar 3.5 05:14:49 10° NNE 05:19:53 65° ESE 05:24:55 10° S visible
09 Mar 5.0 04:38:25 10° NNE 04:42:54 30° E 04:47:20 10° SSE visible
10 Mar 6.0 04:03:03 10° ENE 04:05:42 14° E 04:08:20 10° ESE visible
11 Mar 4.0 05:03:27 10° NNE 05:08:26 51° E 05:13:22 10° S visible
12 Mar 5.4 04:27:16 10° NE 04:31:22 24° E 04:35:27 10° SSE visible
13 Mar 6.3 03:52:49 10° ENE 03:54:07 11° E 03:55:24 10° ESE visible
14 Mar 4.5 04:52:08 10° NNE 04:56:56 41° E 05:01:43 10° SSE visible
15 Mar 5.8 04:16:12 10° NE 04:19:50 19° E 04:23:26 10° SE visible
16 Mar 3.4 05:17:19 10° NNE 05:22:25 71° ESE 05:27:29 10° S visible
